Printer-friendly version

IAU Minor Planet Center

Minor Planet Center

MPEC 2008-X81 : COMET P/2008 X4

The following Minor Planet Electronic Circular may be linked-to from your own Web pages, but must not otherwise be redistributed electronically.


Read MPEC 2008-X80 Read MPEC 2008-X82


M.P.E.C. 2008-X81                                Issued 2008 Dec. 12, 18:06 UT

     The Minor Planet Electronic Circulars contain information on unusual
         minor planets and routine data on comets.  They are published
   on behalf of Commission 20 of the International Astronomical Union by the
          Minor Planet Center, Smithsonian Astrophysical Observatory,
                          Cambridge, MA 02138, U.S.A.

             Prepared using the Tamkin Foundation Computer Network

                              MPC@CFA.HARVARD.EDU
          URL http://www.cfa.harvard.edu/iau/mpc.html  ISSN 1523-6714

                                COMET P/2008 X4

Observations:
    PK08X040 4S2008 12 08.23922 12 56 13.9  -17 06 29                   EX081C50
    PK08X040 4s2008 12 08.23922 2 +0.64885343 -0.36918908 -0.15521273   EX081C50
    PK08X040 4S2008 12 08.35033 12 56 02.4  -16 59 29                   EX081C50
    PK08X040 4s2008 12 08.35033 2 +0.64967530 -0.36818235 -0.15477072   EX081C50
    PK08X040 4S2008 12 08.46144 12 55 50.7  -16 53 02                   EX081C50
    PK08X040 4s2008 12 08.46144 2 +0.65049521 -0.36717390 -0.15432797   EX081C50
    PK08X040 4S2008 12 08.51699 12 55 45.9  -16 49 04                   EX081C50
    PK08X040 4s2008 12 08.51699 2 +0.65090440 -0.36666906 -0.15410634   EX081C50
    PK08X040 4S2008 12 08.57255 12 55 40.0  -16 45 56                   EX081C50
    PK08X040 4s2008 12 08.57255 2 +0.65131313 -0.36616375 -0.15388450   EX081C50
    PK08X040 4S2008 12 08.68366 12 55 29.6  -16 38 46                   EX081C50
    PK08X040 4s2008 12 08.68366 2 +0.65212902 -0.36515194 -0.15344034   EX081C50
    PK08X040 4S2008 12 08.73922 12 55 21.9  -16 35 41                   EX081C50
    PK08X040 4s2008 12 08.73922 2 +0.65253626 -0.36464535 -0.15321796   EX081C50
    PK08X040 4S2008 12 08.79477 12 55 17.3  -16 31 56                   EX081C50
    PK08X040 4s2008 12 08.79477 2 +0.65294293 -0.36413841 -0.15299544   EX081C50
    PK08X040 4S2008 12 08.85033 12 55 11.1  -16 28 18                   EX081C50
    PK08X040 4s2008 12 08.85033 2 +0.65334914 -0.36363102 -0.15277273   EX081C50
    PK08X040 4S2008 12 08.90588 12 55 07.2  -16 25 35                   EX081C50
    PK08X040 4s2008 12 08.90588 2 +0.65375485 -0.36312319 -0.15254983   EX081C50
    PK08X040 4S2008 12 09.01699 12 54 55.9  -16 18 15                   EX081C50
    PK08X040 4s2008 12 09.01699 2 +0.65456477 -0.36210629 -0.15210351   EX081C50
    PK08X040 4S2008 12 09.07255 12 54 48.6  -16 14 59                   EX081C50
    PK08X040 4s2008 12 09.07255 2 +0.65496897 -0.36159720 -0.15188008   EX081C50
    PK08X040 4S2008 12 09.12810 12 54 46.0  -16 11 27                   EX081C50
    PK08X040 4s2008 12 09.12810 2 +0.65537267 -0.36108770 -0.15165648   EX081C50
    PK08X040 4S2008 12 09.23922 12 54 36.5  -16 04 23                   EX081C50
    PK08X040 4s2008 12 09.23922 2 +0.65617859 -0.36006740 -0.15120872   EX081C50
    PK08X040 4S2008 12 09.29477 12 54 31.0  -16 01 35                   EX081C50
    PK08X040 4s2008 12 09.29477 2 +0.65658079 -0.35955663 -0.15098458   EX081C50
    PK08X040 4S2008 12 09.35032 12 54 24.6  -15 57 47                   EX081C50
    PK08X040 4s2008 12 09.35032 2 +0.65698245 -0.35904549 -0.15076028   EX081C50
    PK08X040 4S2008 12 09.40588 12 54 17.8  -15 54 35                   EX081C50
    PK08X040 4s2008 12 09.40588 2 +0.65738366 -0.35853385 -0.15053577   EX081C50
    PK08X040 4S2008 12 09.46144 12 54 17.3  -15 51 17                   EX081C50
    PK08X040 4s2008 12 09.46144 2 +0.65778433 -0.35802184 -0.15031110   EX081C50
    PK08X040 4S2008 12 09.51699 12 54 10.8  -15 47 31                   EX081C50
    PK08X040 4s2008 12 09.51699 2 +0.65818447 -0.35750944 -0.15008628   EX081C50
    PK08X040 4S2008 12 09.57254 12 54 07.3  -15 44 50                   EX081C50
    PK08X040 4s2008 12 09.57254 2 +0.65858414 -0.35699659 -0.14986126   EX081C50
    PK08X040 4S2008 12 09.62810 12 54 01.5  -15 41 31                   EX081C50
    PK08X040 4s2008 12 09.62810 2 +0.65898330 -0.35648332 -0.14963606   EX081C50
    PK08X040 4S2008 12 09.68365 12 53 57.0  -15 37 59                   EX081C50
    PK08X040 4s2008 12 09.68365 2 +0.65938194 -0.35596965 -0.14941069   EX081C50
    PK08X040 4S2008 12 09.73921 12 53 54.6  -15 34 25                   EX081C50
    PK08X040 4s2008 12 09.73921 2 +0.65978009 -0.35545554 -0.14918514   EX081C50
    PK08X040 4S2008 12 09.79477 12 53 47.3  -15 31 24                   EX081C50
    PK08X040 4s2008 12 09.79477 2 +0.66017771 -0.35494104 -0.14895942   EX081C50
    PK08X040 4S2008 12 09.85032 12 53 43.6  -15 28 37                   EX081C50
    PK08X040 4s2008 12 09.85032 2 +0.66057484 -0.35442612 -0.14873352   EX081C50
    PK08X040 4S2008 12 09.90588 12 53 38.9  -15 25 00                   EX081C50
    PK08X040 4s2008 12 09.90588 2 +0.66097145 -0.35391078 -0.14850745   EX081C50
    PK08X040 4S2008 12 09.96144 12 53 35.2  -15 21 53                   EX081C50
    PK08X040 4s2008 12 09.96144 2 +0.66136758 -0.35339500 -0.14828119   EX081C50

Observer details:
C50 STEREO-B.  STEREO-SECCHI imager HI1.  Comet detection by A. Watson,
    measurements by K. Battams, reductions by B. G. Marsden.

Orbital elements:
    P/2008 X4
T 2008 Dec. 18.34 TT                                    MPC
q   0.4957               (2000.0)            P               Q
                   Peri.  336.25        +0.14129        -0.97372
                   Node   105.24        +0.93536        +0.07221
e   1.0            Incl.   10.67        +0.32425        +0.21599
From 27 observations 2008 Dec. 8-9.

     From a similar orbit computation by R. Kracht from his own measurements of
the comet's position, M. Meyer has suggested that comet P/2008 X4 = P/2003 K2
(Christensen), predicted on MPC 56802 to return with T = 2009 Jan. 8.9.

     A linkage of the above observations to those of P/2003 K2 yields the
following result:

    P/2003 K2 = 2008 X4 (Christensen)
Epoch 2003 Mar. 22.0 TT = JDT 2452720.5
T 2003 Apr. 7.84519 TT                                  MPC
q   0.5487520            (2000.0)            P               Q
n   0.17241212     Peri.  345.46426     +0.18015222     -0.96783116
a   3.1971095      Node    93.92923     +0.91913597     +0.10203798
e   0.8283600      Incl.   10.13976     +0.35033449     +0.22998065
P   5.72

